Wind_Speed
20 16 14 16 13 16 10 6 5 7 11 12 11 12 12 13 13 12 12 10 9 11
17 12 12 3 15 7 5 3 5 4 7 8 11 11 12 12 15 13 14 13 13 9
15 12 10 17 10 6 3 4 1 2 4 4 7 8 10 12 12 12 11 12 12 12
12 8 8 8 5 4 3 2 2 3 4 6 5 7 8 9 8 10 11 11 7 14
12 8 5 6 5 3 3 2 2 2 3 4 6 6 6 5 5 7 7 9 9 10
12 11 10 10 8 7 5 6 7 5 6 6 4 4 5 4 3 4 4 4 5 5
13 16 13 13 9 8 7 5 5 5 4 4 5 6 8 4 5 6 5 5 4 3
15 19 18 12 8 6 4 5 3 2 4 2 4 4 4 4 5 2 4 3 3 5
17 21 16 11 8 6 4 4 4 3 3 9 7 4 1 3 2 1 1 0 2 4
21 17 14 11 10 8 7 6 4 3 3 5 5 3 2 1 3 2 3 3 1 6
21 17 15 13 12 10 6 4 4 4 2 2 4 1 4 3 2 3 3 1 2 3
26 25 18 16 15 14 10 7 4 5 4 4 4 2 2 2 2 2 1 2 3 1
23 20 18 14 14 11 11 10 9 7 4 2 3 3 4 4 4 6 4 10 7 7
17 16 13 14 10 8 5 11 7 11 8 6 1 5 6 4 1 4 3 5 8 4
Wind_Direction
223 216 206 216 230 224 214 216 214 229 225 215 211 210 213 213 210 225 225 231 231 229
218 216 215 98 253 202 209 209 225 261 242 222 217 207 212 211 217 228 230 225 233 243
220 204 181 176 192 133 193 199 112 199 209 237 232 223 210 217 218 224 228 227 227 233
207 201 170 185 192 191 176 162 203 204 182 200 197 221 221 220 222 228 222 231 256 234
181 174 186 183 171 132 135 122 165 155 169 160 180 196 201 210 213 224 227 238 241 235
166 167 187 176 147 124 108 50 102 81 83 101 127 174 172 171 186 221 233 246 250 253
186 177 170 146 134 138 127 112 111 95 90 93 102 110 95 95 104 82 85 100 102 191
198 143 129 129 119 116 129 118 97 107 105 84 87 90 103 96 42 66 30 50 69 118
134 128 132 134 139 129 109 101 97 82 87 74 64 58 91 202 64 59 231 151 46 1
134 129 137 151 150 152 155 148 139 120 119 86 30 24 38 109 18 74 73 62 80 60
142 147 159 165 169 160 165 166 154 145 131 84 11 35 17 13 1 352 86 65 25 83
171 173 172 171 180 168 164 161 169 147 139 129 20 42 35 332 28 229 128 228 168 102
178 178 167 179 179 166 164 166 164 146 149 91 338 334 315 308 311 321 275 191 204 212
173 170 166 153 152 158 189 157 140 137 140 146 74 320 322 301 261 304 277 188 138 127
Height
781 784 789 789 790 784 791 790 792 794 795 797 800 802 804 806 809 811 812 813 815 815
778 783 785 787 789 788 791 791 789 793 794 795 798 800 802 804 806 809 811 812 812 814
776 782 786 789 790 788 791 790 788 791 792 795 797 799 801 802 805 806 809 810 810 811
773 778 785 788 788 791 788 788 788 791 792 793 795 797 799 801 803 804 805 807 808 809
776 775 778 782 785 786 787 787 790 791 793 796 795 796 797 799 800 802 802 804 805 807
774 777 779 781 783 785 786 789 791 793 794 795 796 797 797 798 799 801 801 802 803 804
775 776 779 783 784 787 788 791 793 794 795 796 796 797 798 799 799 800 801 802 801 802
773 774 779 783 787 789 791 792 793 795 795 796 795 796 797 798 799 800 801 802 802 803
774 775 779 784 787 789 791 793 794 796 797 795 797 798 798 799 799 801 802 802 803 803
773 777 782 786 788 791 793 793 795 796 796 796 798 799 800 799 800 801 801 803 804 804
772 777 781 786 788 789 792 794 794 795 797 796 798 799 800 801 801 802 802 804 805 804
766 769 778 782 786 786 789 792 795 796 797 797 799 800 800 801 802 802 802 803 804 804
769 770 776 782 787 789 788 790 794 795 796 796 799 800 801 801 801 801 802 800 800 802
768 773 777 781 786 789 790 790 794 792 796 796 797 800 801 800 800 800 800 799 800 800